This is the latest recevied weather packets stored in our database for station/object SK4BW-10. If no packets are shown the sender has not sent any weather packets the latest 1 day(s).
| Time | Temp. | Humidity | Pressure | Rain* | Wind** | Luminosity | Snow |
|---|---|---|---|---|---|---|---|
| 1778093120 | 8.33° C | 32% | 1009.9 hPa | - | - | - | - |
| 1778090419 | 8.89° C | 29% | 1009.8 hPa | - | - | - | - |
| 1778086811 | 9.44° C | 27% | 1009.6 hPa | - | - | - | - |
| 1778085913 | 9.44° C | 28% | 1009.7 hPa | - | - | - | - |
| 1778085910 | 10° C | 28% | 1009.8 hPa | - | - | - | - |
| 1778085009 | 9.44° C | 28% | 1009.7 hPa | - | - | - | - |
| 1778084111 | 9.44° C | 29% | 1009.8 hPa | - | - | - | - |
| 1778083211 | 9.44° C | 30% | 1009.9 hPa | - | - | - | - |
| 1778082306 | 9.44° C | 30% | 1009.9 hPa | - | - | - | - |
| 1778081411 | 10.56° C | 30% | 1010 hPa | - | - | - | - |
| 1778081404 | 10° C | 36% | 1010 hPa | - | - | - | - |
| 1778079603 | 8.89° C | 33% | 1010 hPa | - | - | - | - |
| 1778078711 | 10° C | 40% | 1010.2 hPa | - | - | - | - |
| 1778075105 | 10° C | 31% | 1010.5 hPa | - | - | - | - |
| 1778072397 | 8.33° C | 36% | 1010.5 hPa | - | - | - | - |
| 1778071496 | 8.89° C | 35% | 1010.6 hPa | - | - | - | - |
| 1778070595 | 8.33° C | 36% | 1010.7 hPa | - | - | - | - |
| 1778069697 | 8.33° C | 35% | 1010.8 hPa | - | - | - | - |
| 1778069694 | 7.78° C | 40% | 1010.8 hPa | - | - | - | - |
| 1778068796 | 8.33° C | 34% | 1010.8 hPa | - | - | - | - |
| 1778068793 | 8.33° C | 35% | 1010.8 hPa | - | - | - | - |
| 1778067895 | 8.89° C | 36% | 1010.9 hPa | - | - | - | - |
| 1778067892 | 8.33° C | 34% | 1010.8 hPa | - | - | - | - |
| 1778066994 | 8.89° C | 36% | 1010.8 hPa | - | - | - | - |
| 1778066093 | 7.78° C | 35% | 1010.9 hPa | - | - | - | - |
* Rain since midnight (hover to see other rain measurements)
** Current wind speed in m/s (hover to see current wind gust speed)